[[{"header":{"parameterUnit":"m.s-1","parameterCategory":2,"la1":30.2991,"la2":30.254,"lo1":-89.0895,"lo2":-89.0444,"dy":0.0017,"dx":0.0017,"nx":28,"ny":28,"refTime":"2024-08-12T21:00:00:Z","depth":"0","parameterNumber":2,"parameterNumberName":"U-component_of_CURRENTS"},"data":[0,0,0,0,0,0,0,0,0,0,0,0,0,0,0,0,0,0,0,0,0,0,0,0,0,0,0,0,0,0,0,0,0,0,0,0,0,0,0,0,0,0,0,0,0,0,0,0,0,0,0,0,0,0,0,0,0,0,0.2814,0.2814,0,0.2789,0.2788,0.2787,0.2726,0.2725,0.2724,0.2723,0.2656,0.2655,0.2654,0,0,0,0,0,0,0,0,0,0,0,0,0,0.2799,0.28,0.2814,0.2814,0.2815,0.2789,0.2788,0.2787,0.2726,0.2725,0.2724,0.2723,0.2657,0.2655,0.2654,0,0,0,0,0,0,0,0,0,0,0,0,0,0.2789,0.28,0.2814,0.2784,0.2781,0.2789,0.2788,0.2787,0.2726,0.2725,0.2724,0.2722,0.2657,0.2656,0.2654,0.2672,0,0,0.265,0.2649,0,0,0,0,0,0,0,0,0.279,0.2789,0.2789,0.2786,0.2783,0.2763,0.2758,0.2748,0.2727,0.2743,0.2723,0.2722,0.2692,0.2688,0.268,0.2668,0.2666,0.265,0.2649,0.2648,0.2648,0,0,0,0,0,0,0,0.279,0.279,0.28,0.2789,0.2786,0.2768,0.2765,0.2756,0.2721,0.2741,0.2738,0.2742,0.2689,0.2682,0.2678,0.2665,0.265,0.2648,0.2647,0.2647,0.27,0.2702,0,0,0,0,0,0,0.2805,0.2791,0.2801,0.2799,0.2788,0.277,0.2766,0.2767,0.2722,0.2715,0.2743,0.274,0.2685,0.268,0.2675,0.275,0.2648,0.2647,0.2646,0.2697,0.27,0.2703,0,0,0,0,0,0,0.2804,0.2806,0.2802,0.2798,0.2797,0.2772,0.2774,0.2768,0.2763,0.2725,0.2716,0.2746,0.2683,0.2677,0.2681,0.2744,0.2646,0.2645,0.2695,0.2698,0.2701,0.2862,0,0,0,0,0,0,0.2804,0.2806,0.2811,0.2799,0.2798,0.2813,0.2775,0.2768,0.277,0.2765,0.2725,0.2717,0.2682,0.2683,0.2679,0.274,0.2644,0.2692,0.2696,0.27,0.2854,0.287,0.2885,0,0,0,0,0,0.2803,0.2813,0.2811,0.2812,0.2806,0.2814,0.2812,0.2787,0.2772,0.2776,0.2756,0.2718,0.2708,0.2684,0.2679,0.2741,0.269,0.2695,0.27,0.2847,0.2867,0.2884,0,0,0,0,0,0,0.2803,0.2808,0.2805,0.2814,0.2821,0.2806,0.2808,0.28,0.2788,0.2781,0.2741,0.2733,0.2766,0.2726,0.2701,0.2768,0.2696,0.27,0.2809,0.2828,0.2843,0.2796,0.2642,0,0,0,0,0,0.2811,0.2821,0.2825,0.2834,0.2839,0.2829,0.283,0.282,0.2811,0.2803,0.2784,0.2769,0.2785,0.2781,0.2775,0.2805,0.2823,0.2842,0.2858,0.2871,0.283,0.2949,0.2972,0.2719,0.2719,0.2719,0,0,0.281,0.2819,0.2821,0.2836,0.2834,0.285,0.2825,0.2835,0.285,0.28,0.2814,0.2823,0.2805,0.2846,0.2858,0.2818,0.2966,0.2877,0.2889,0.2839,0.2957,0.2982,0.3004,0.2723,0.2722,0.2722,0,0,0.282,0.2827,0.2839,0.2853,0.2869,0.287,0.288,0.2882,0.2882,0.2904,0.2894,0.293,0.2924,0.2942,0.2947,0.3039,0.305,0.3054,0.309,0.321,0.3232,0.3251,0.3372,0.3401,0.3057,0.3057,0.3058,0,0.2817,0.2839,0.2845,0.2868,0.2883,0.2884,0.2906,0.2915,0.2921,0.294,0.2918,0.2974,0.2967,0.3042,0.3071,0.3075,0.3143,0.303,0.3234,0.3252,0.3269,0.3388,0.3417,0.3066,0.3065,0.3064,0.3063,0,0.284,0.2861,0.2873,0.2903,0.2923,0.2943,0.2965,0.299,0.2999,0.3012,0.3081,0.3089,0.3119,0.3154,0.3129,0.3258,0.3273,0.3253,0.3192,0.3305,0.3423,0.3451,0.3078,0.3075,0.3072,0.307,0,0,0.2822,0.2876,0.288,0.2903,0.2945,0.2961,0.3009,0.3054,0.3093,0.3119,0.3188,0.3227,0.3243,0.3246,0.3267,0.3348,0.3558,0.3346,0.3349,0.3475,0.3849,0.3904,0.3939,0.3598,0.3602,0.3605,0.3908,0,0.2835,0.288,0.2909,0.2956,0.298,0.3016,0.3058,0.3104,0.3146,0.3216,0.3261,0.3325,0.3281,0.3329,0.3408,0.3514,0.3626,0.3477,0.3707,0.3713,0.3757,0.397,0.3922,0.419,0.3935,0.3939,0.3943,0,0.285,0.288,0.2921,0.2987,0.3001,0.3028,0.3109,0.3152,0.3252,0.3294,0.337,0.341,0.3531,0.3484,0.3711,0.363,0.3736,0.381,0.3825,0.3815,0.3818,0.4021,0.4249,0.4076,0.3985,0.3981,0.3978,0,0.2831,0.2892,0.2924,0.2945,0.3014,0.3043,0.3083,0.3169,0.3211,0.3358,0.3418,0.3554,0.3632,0.3783,0.3906,0.3848,0.4167,0.4121,0.4273,0.4279,0.4241,0.4236,0.4321,0.4299,0.4298,0.4297,0.4296,0,0.2839,0.2868,0.2912,0.2929,0.2964,0.3029,0.3082,0.3152,0.3258,0.3336,0.345,0.3556,0.3708,0.3886,0.3999,0.4241,0.4264,0.4317,0.4377,0.4302,0.43,0.4141,0.4006,0.4308,0.4306,0.4304,0.4302,0,0.2818,0.2853,0.2884,0.294,0.2952,0.2976,0.3043,0.3099,0.3211,0.333,0.3386,0.3592,0.3865,0.4031,0.4307,0.4368,0.4487,0.466,0.4561,0.4603,0.4563,0.4438,0.4416,0.4298,0.491,0.4913,0.4916,0,0.2811,0.2823,0.2858,0.2863,0.2882,0.2919,0.2953,0.3057,0.3123,0.3356,0.3427,0.3712,0.3903,0.4341,0.4572,0.4863,0.4635,0.4941,0.4801,0.4595,0.45,0.4253,0.4133,0.4848,0.485,0.4852,0.4853,0,0.2787,0.2793,0.2813,0.2814,0.2834,0.2856,0.2915,0.2951,0.3112,0.3242,0.3459,0.3636,0.4089,0.4385,0.4763,0.4929,0.4702,0.4986,0.4807,0.4494,0.4194,0.4098,0.4602,0.4869,0.4867,0.4866,0.4865,0.4864,0.2752,0.2748,0.2759,0.2757,0.2775,0.2785,0.2786,0.2894,0.3,0.3193,0.3419,0.3679,0.4111,0.4666,0.4832,0.5011,0.484,0.4906,0.4795,0.458,0.4372,0.4912,0.5208,0.5209,0.5209,0.5209,0.521,0,0.2693,0.2695,0.2699,0.2683,0.2667,0.2701,0.2755,0.2775,0.2884,0.3136,0.3336,0.3767,0.4141,0.4505,0.4874,0.4799,0.4606,0.4658,0.4259,0.417,0.4729,0.4627,0.4766,0.4767,0.4767,0.4767,0.4767,0.4767,0.2661,0.2638,0.2638,0.2573,0.2559,0.253,0.2543,0.2619,0.2766,0.3012,0.324,0.3478,0.389,0.4316,0.447,0.4461,0.4085,0.3981,0.3838,0.4183,0.4193,0.4202,0.4075,0.4097,0.4096,0.3187,0.318,0.3175]},{"header":{"parameterUnit":"m.s-1","parameterCategory":2,"la1":30.2991,"la2":30.254,"lo1":-89.0895,"lo2":-89.0444,"dy":0.0017,"dx":0.0017,"nx":28,"ny":28,"refTime":"2024-08-12T21:00:00:Z","depth":"0","parameterNumber":3,"parameterNumberName":"V-component_of_CURRENTS"},"data":[0,0,0,0,0,0,0,0,0,0,0,0,0,0,0,0,0,0,0,0,0,0,0,0,0,0,0,0,0,0,0,0,0,0,0,0,0,0,0,0,0,0,0,0,0,0,0,0,0,0,0,0,0,0,0,0,0,0,-0.0878,-0.0879,0,-0.0952,-0.0952,-0.0953,-0.1031,-0.1033,-0.1034,-0.1035,-0.1132,-0.1133,-0.1135,0,0,0,0,0,0,0,0,0,0,0,0,0,-0.0821,-0.0821,-0.0878,-0.0879,-0.088,-0.0951,-0.0952,-0.0953,-0.1031,-0.1033,-0.1034,-0.1036,-0.1131,-0.1133,-0.1135,0,0,0,0,0,0,0,0,0,0,0,0,0,-0.0864,-0.0822,-0.0878,-0.0928,-0.0934,-0.0951,-0.0952,-0.0953,-0.1031,-0.1033,-0.1035,-0.1036,-0.1131,-0.1133,-0.1135,-0.1113,0,0,-0.1142,-0.1143,0,0,0,0,0,0,0,0,-0.0862,-0.0866,-0.092,-0.0925,-0.0931,-0.0985,-0.0968,-0.1008,-0.1031,-0.0993,-0.1035,-0.1037,-0.1084,-0.109,-0.1098,-0.1117,-0.1121,-0.1142,-0.1143,-0.1144,-0.1145,0,0,0,0,0,0,0,-0.0858,-0.0863,-0.0906,-0.0921,-0.0928,-0.0953,-0.0961,-0.0976,-0.1027,-0.0996,-0.1003,-0.1012,-0.1088,-0.1096,-0.1101,-0.1123,-0.1142,-0.1144,-0.1145,-0.1146,-0.1132,-0.113,0,0,0,0,0,0,-0.0849,-0.086,-0.0904,-0.0909,-0.0901,-0.0952,-0.0961,-0.0965,-0.1027,-0.1038,-0.101,-0.1015,-0.1091,-0.1099,-0.1105,-0.1068,-0.1144,-0.1146,-0.1148,-0.1134,-0.1132,-0.113,0,0,0,0,0,0,-0.0847,-0.0851,-0.0901,-0.0887,-0.0896,-0.0951,-0.0955,-0.0966,-0.0976,-0.1037,-0.1049,-0.101,-0.1093,-0.1102,-0.111,-0.1073,-0.1147,-0.1149,-0.1136,-0.1133,-0.1131,-0.1002,0,0,0,0,0,0,-0.0845,-0.085,-0.0836,-0.0886,-0.0896,-0.0892,-0.0954,-0.0966,-0.0979,-0.0986,-0.1041,-0.1052,-0.1095,-0.1106,-0.1112,-0.1077,-0.1151,-0.1138,-0.1135,-0.1132,-0.1009,-0.0996,-0.0985,0,0,0,0,0,-0.0842,-0.0808,-0.0835,-0.0839,-0.0879,-0.089,-0.0896,-0.0942,-0.0977,-0.0962,-0.1006,-0.105,-0.1091,-0.1106,-0.1114,-0.1079,-0.1139,-0.1135,-0.1132,-0.1014,-0.0998,-0.0985,0,0,0,0,0,0,-0.0761,-0.0815,-0.0845,-0.0825,-0.0851,-0.0903,-0.0888,-0.0929,-0.0952,-0.0958,-0.1028,-0.104,-0.1037,-0.1071,-0.1086,-0.1066,-0.1122,-0.1119,-0.103,-0.1016,-0.1004,-0.0962,-0.1153,0,0,0,0,0,-0.074,-0.0736,-0.0789,-0.0768,-0.0777,-0.0832,-0.084,-0.0873,-0.0907,-0.092,-0.0962,-0.1,-0.1024,-0.1031,-0.1058,-0.1038,-0.1058,-0.1021,-0.1009,-0.0998,-0.0969,-0.0976,-0.0961,-0.1117,-0.1117,-0.1118,0,0,-0.0702,-0.0729,-0.0726,-0.0751,-0.0775,-0.0766,-0.084,-0.0838,-0.0827,-0.0924,-0.091,-0.096,-0.1012,-0.0998,-0.0998,-0.1021,-0.0962,-0.0993,-0.0984,-0.096,-0.097,-0.0955,-0.0942,-0.1115,-0.1115,-0.1116,0,0,-0.0627,-0.0648,-0.0626,-0.0639,-0.0668,-0.0698,-0.0694,-0.074,-0.0754,-0.0752,-0.0823,-0.0841,-0.0876,-0.09,-0.092,-0.0851,-0.0905,-0.0868,-0.0764,-0.0771,-0.0758,-0.0747,-0.074,-0.0729,-0.0854,-0.0854,-0.0854,0,-0.0579,-0.0566,-0.0615,-0.0596,-0.0593,-0.0662,-0.0631,-0.0646,-0.0687,-0.0683,-0.0727,-0.0771,-0.0822,-0.0804,-0.0788,-0.0821,-0.0834,-0.0816,-0.0754,-0.0743,-0.0734,-0.073,-0.072,-0.0847,-0.0848,-0.0849,-0.0849,0,-0.0505,-0.0486,-0.0465,-0.0472,-0.0467,-0.0445,-0.0481,-0.0475,-0.0508,-0.0535,-0.053,-0.0596,-0.0627,-0.0643,-0.0696,-0.0653,-0.0686,-0.0745,-0.0787,-0.071,-0.0711,-0.0703,-0.0838,-0.084,-0.0842,-0.0844,0,0,-0.0425,-0.0417,-0.041,-0.0388,-0.0401,-0.0386,-0.0352,-0.0344,-0.0314,-0.0355,-0.0316,-0.0368,-0.0423,-0.0447,-0.0517,-0.0514,-0.0469,-0.0589,-0.0592,-0.0573,-0.0469,-0.0478,-0.0471,-0.0523,-0.0521,-0.052,-0.0492,0,-0.0354,-0.0294,-0.0308,-0.0233,-0.0203,-0.0234,-0.0192,-0.0189,-0.0202,-0.0178,-0.0237,-0.0235,-0.0344,-0.0354,-0.0372,-0.0449,-0.0442,-0.047,-0.0553,-0.0554,-0.0565,-0.046,-0.0404,-0.0373,-0.0484,-0.0483,-0.0482,0,-0.0285,-0.0254,-0.0176,-0.0119,-0.0106,-0.0065,-0.0011,0.0017,0.0028,0.0019,0.0003,-0.0059,-0.007,-0.0174,-0.0244,-0.026,-0.0344,-0.04,-0.0402,-0.0445,-0.0546,-0.0472,-0.0355,-0.0591,-0.047,-0.0471,-0.0472,0,-0.0219,-0.0156,-0.0087,-0.0071,-0.0022,0.0024,0.0056,0.0081,0.0128,0.0149,0.0185,0.0126,0.0116,0.0012,-0.0132,-0.0185,-0.0194,-0.0296,-0.0373,-0.0375,-0.0357,-0.0361,-0.0468,-0.032,-0.0321,-0.0321,-0.0321,0,-0.0145,-0.0086,-0.0047,-0.0007,0.0092,0.0104,0.0211,0.0228,0.0284,0.0374,0.0287,0.0348,0.0162,0.0113,-0.0042,-0.0159,-0.0135,-0.0311,-0.0353,-0.0311,-0.0311,-0.0544,-0.0698,-0.032,-0.032,-0.032,-0.032,0,-0.0081,-0.0062,0.0025,0.0095,0.0125,0.02,0.0307,0.0387,0.0423,0.0541,0.0561,0.053,0.048,0.0303,0.0157,-0.0026,-0.0254,-0.02,-0.0128,-0.0162,-0.0484,-0.0632,-0.0727,-0.0817,-0.0277,-0.0277,-0.0276,0,-0.004,0.0007,0.0098,0.0158,0.0198,0.0303,0.0385,0.0447,0.0543,0.0668,0.0745,0.0736,0.0759,0.0547,0.0267,0.0037,-0.0201,-0.0115,-0.0216,-0.045,-0.0647,-0.0732,-0.0808,-0.014,-0.0139,-0.0138,-0.0137,0,0.0045,0.0071,0.0138,0.025,0.0348,0.0467,0.0593,0.0686,0.0792,0.091,0.1061,0.1102,0.0917,0.0723,0.0387,0.0199,-0.0264,-0.0105,-0.0359,-0.0537,-0.0619,-0.0743,-0.0219,-0.0127,-0.0128,-0.0129,-0.013,-0.013,0.0111,0.0173,0.0254,0.0364,0.0479,0.0638,0.0762,0.0916,0.1102,0.1337,0.1331,0.1489,0.1126,0.0697,0.0374,-0.0181,-0.0214,-0.0376,-0.0527,-0.0585,-0.0693,-0.0139,-0.0103,-0.0103,-0.0104,-0.0105,-0.0105,0,0.0196,0.0262,0.0368,0.0515,0.0661,0.0699,0.0911,0.1063,0.1317,0.1565,0.1732,0.1705,0.1252,0.0731,-0.003,-0.0515,-0.0681,-0.0781,-0.0907,-0.0962,-0.0465,-0.0485,-0.0514,-0.0513,-0.0513,-0.0513,-0.0513,-0.0512,0.0252,0.0359,0.0408,0.0647,0.0761,0.0977,0.111,0.1343,0.1561,0.1914,0.2094,0.217,0.1738,0.0299,-0.0736,-0.0982,-0.1333,-0.1369,-0.1585,-0.1296,-0.127,-0.1246,-0.1301,-0.15,-0.1501,-0.1973,-0.1979,-0.1983]}],[{"header":{"parameterUnit":"m.s-1","parameterCategory":2,"la1":30.2991,"la2":30.254,"lo1":-89.0895,"lo2":-89.0444,"dy":0.0017,"dx":0.0017,"nx":28,"ny":28,"refTime":"2024-08-12T21:00:00:Z","depth":"2","parameterNumber":2,"parameterNumberName":"U-component_of_CURRENTS"},"data":[0,0,0,0,0,0,0,0,0,0,0,0,0,0,0,0,0,0,0,0,0,0,0,0,0,0,0,0,0,0,0,0,0,0,0,0,0,0,0,0,0,0,0,0,0,0,0,0,0,0,0,0,0,0,0,0,0,0,0.253,0.2531,0,0.2682,0.2684,0.2685,0.2735,0.2734,0.2734,0.2733,0.2815,0.2817,0.282,0,0,0,0,0,0,0,0,0,0,0,0,0,0.233,0.2332,0.2529,0.2531,0.2534,0.2682,0.2684,0.2686,0.2735,0.2734,0.2734,0.2733,0.2814,0.2817,0.282,0,0,0,0,0,0,0,0,0,0,0,0,0,0.2441,0.2333,0.2529,0.2577,0.2583,0.2682,0.2684,0.2686,0.2735,0.2734,0.2733,0.2733,0.2813,0.2817,0.2821,0.2861,0,0,0.2833,0.2834,0,0,0,0,0,0,0,0,0.2434,0.2448,0.2568,0.2574,0.2581,0.269,0.2644,0.2742,0.2735,0.2676,0.2733,0.2732,0.2768,0.2776,0.2805,0.2865,0.2868,0.2833,0.2836,0.2837,0.2838,0,0,0,0,0,0,0,0.2427,0.2442,0.2588,0.257,0.2578,0.2608,0.2623,0.2663,0.2722,0.2681,0.2685,0.2705,0.2771,0.2801,0.2807,0.287,0.2833,0.2837,0.2839,0.2841,0.2986,0.2988,0,0,0,0,0,0,0.241,0.2435,0.2583,0.2593,0.2506,0.2612,0.2628,0.2654,0.2723,0.2734,0.2706,0.2707,0.2794,0.2802,0.281,0.2861,0.2837,0.2841,0.2843,0.2985,0.2987,0.2988,0,0,0,0,0,0,0.2405,0.2422,0.2577,0.2518,0.254,0.2616,0.2646,0.2658,0.2692,0.2743,0.2752,0.2727,0.2794,0.2804,0.2862,0.2864,0.2843,0.2846,0.2983,0.2985,0.2987,0.2962,0,0,0,0,0,0,0.2399,0.242,0.2433,0.2517,0.2543,0.2637,0.2647,0.2662,0.2706,0.2709,0.2765,0.2771,0.2794,0.2856,0.2866,0.2869,0.2849,0.2981,0.2984,0.2987,0.2961,0.2963,0.2965,0,0,0,0,0,0.2392,0.2412,0.2433,0.2451,0.2559,0.2639,0.2655,0.2704,0.2708,0.273,0.2773,0.277,0.288,0.2861,0.2872,0.2876,0.298,0.2983,0.2987,0.296,0.2963,0.2965,0,0,0,0,0,0,0.2334,0.2422,0.2446,0.2493,0.2561,0.2647,0.2671,0.2707,0.2761,0.2754,0.2797,0.2809,0.286,0.2881,0.2859,0.2929,0.2926,0.2932,0.2902,0.2905,0.2907,0.2911,0.2853,0,0,0,0,0,0.2328,0.2365,0.2454,0.2491,0.252,0.2595,0.2632,0.2668,0.2728,0.275,0.2789,0.2832,0.2884,0.2903,0.2949,0.299,0.3053,0.3,0.3002,0.3003,0.3017,0.3122,0.3135,0.2999,0.2999,0.2999,0,0,0.2316,0.237,0.2391,0.2481,0.2531,0.2581,0.2615,0.2668,0.2707,0.2749,0.2799,0.2844,0.2901,0.295,0.2972,0.2963,0.3079,0.3007,0.3008,0.3021,0.3127,0.314,0.3152,0.3001,0.3001,0.3001,0,0,0.2309,0.2357,0.2383,0.2439,0.2516,0.2567,0.2582,0.2665,0.2695,0.2756,0.2799,0.2856,0.2916,0.297,0.3002,0.3048,0.3092,0.3047,0.3051,0.3153,0.3165,0.3176,0.3286,0.3307,0.3039,0.3039,0.3039,0,0.2287,0.2341,0.2403,0.2444,0.2486,0.2558,0.2595,0.2647,0.2736,0.2773,0.2761,0.29,0.2931,0.3027,0.3033,0.3051,0.312,0.303,0.3155,0.3167,0.3179,0.3289,0.3313,0.3038,0.3038,0.3038,0.3038,0,0.2306,0.2348,0.2366,0.2441,0.2494,0.2537,0.2616,0.2664,0.2698,0.2756,0.2847,0.291,0.2999,0.3006,0.3027,0.3129,0.3156,0.3149,0.3143,0.3191,0.3304,0.3329,0.3037,0.3037,0.3038,0.3038,0,0,0.2254,0.2357,0.2362,0.2397,0.2493,0.254,0.2602,0.2695,0.2753,0.2813,0.2899,0.2973,0.3018,0.3061,0.3104,0.3171,0.3304,0.3184,0.319,0.3285,0.3546,0.3355,0.3364,0.3315,0.3319,0.3322,0.3596,0,0.2246,0.2307,0.2367,0.2427,0.2466,0.255,0.2614,0.2703,0.2776,0.2874,0.2951,0.3047,0.3037,0.3088,0.3157,0.3284,0.3368,0.3232,0.3495,0.3503,0.3318,0.3385,0.3029,0.3223,0.362,0.3625,0.3628,0,0.2242,0.2287,0.2339,0.2434,0.2459,0.2511,0.2633,0.2703,0.2853,0.2912,0.3018,0.3095,0.3235,0.32,0.3441,0.3356,0.3451,0.3527,0.3539,0.3385,0.3356,0.324,0.3255,0.367,0.3667,0.3664,0.3661,0,0.2183,0.2266,0.2305,0.2338,0.2459,0.2502,0.2574,0.2715,0.279,0.2959,0.3038,0.3199,0.3311,0.3445,0.3598,0.3538,0.3858,0.3801,0.3729,0.3719,0.3479,0.3438,0.397,0.3969,0.3969,0.3968,0.3967,0,0.216,0.2192,0.2282,0.231,0.2368,0.2469,0.2557,0.2658,0.2815,0.2923,0.3062,0.3187,0.3374,0.3564,0.3667,0.3787,0.3932,0.3752,0.3774,0.3458,0.3414,0.3841,0.3822,0.3978,0.3976,0.3974,0.3972,0,0.2107,0.2164,0.2214,0.2317,0.2348,0.2396,0.2533,0.2611,0.2769,0.2923,0.2985,0.3232,0.3486,0.3678,0.3941,0.3869,0.401,0.402,0.3635,0.3599,0.3789,0.3766,0.3947,0.3942,0.3939,0.3935,0.3933,0,0.2096,0.2113,0.2196,0.2221,0.227,0.2348,0.2412,0.257,0.266,0.2945,0.3023,0.3317,0.3473,0.3779,0.3737,0.3869,0.4071,0.3607,0.3377,0.3782,0.3787,0.377,0.3753,0.3094,0.3084,0.3077,0.3071,0,0.2067,0.2091,0.2126,0.2169,0.2224,0.2283,0.2387,0.2453,0.266,0.282,0.3068,0.3214,0.3396,0.3336,0.3432,0.3451,0.353,0.3444,0.4043,0.3101,0.2984,0.2986,0.2997,0.3002,0.3009,0.3014,0.3018,0.3021,0.2039,0.2044,0.208,0.212,0.2163,0.222,0.227,0.2402,0.2556,0.2737,0.2961,0.3042,0.2993,0.2906,0.2914,0.2897,0.3088,0.2982,0.3005,0.3036,0.2834,0.271,0.2644,0.2649,0.2653,0.2656,0.2659,0,0.2013,0.2017,0.2034,0.2073,0.2087,0.2147,0.2253,0.2289,0.2447,0.2529,0.2705,0.2442,0.2373,0.2452,0.2214,0.2154,0.2122,0.2194,0.2145,0.221,0.2269,0.2027,0.1626,0.1624,0.1622,0.162,0,0,0.2002,0.1995,0.1996,0.1993,0.202,0.2055,0.2113,0.2175,0.2204,0.217,0.212,0.221,0.2227,0.1847,0.181,0.171,0.1959,0.1651,0.246,0.2459,0.2516,0.2681,0.2376,0,0,0,0,0]},{"header":{"parameterUnit":"m.s-1","parameterCategory":2,"la1":30.2991,"la2":30.254,"lo1":-89.0895,"lo2":-89.0444,"dy":0.0017,"dx":0.0017,"nx":28,"ny":28,"refTime":"2024-08-12T21:00:00:Z","depth":"2","parameterNumber":3,"parameterNumberName":"V-component_of_CURRENTS"},"data":[0,0,0,0,0,0,0,0,0,0,0,0,0,0,0,0,0,0,0,0,0,0,0,0,0,0,0,0,0,0,0,0,0,0,0,0,0,0,0,0,0,0,0,0,0,0,0,0,0,0,0,0,0,0,0,0,0,0,0.0557,0.0556,0,0.0479,0.0478,0.0477,0.0385,0.0384,0.0382,0.0381,0.0269,0.0267,0.0265,0,0,0,0,0,0,0,0,0,0,0,0,0,0.059,0.059,0.0557,0.0556,0.0555,0.048,0.0478,0.0477,0.0385,0.0383,0.0382,0.038,0.0269,0.0267,0.0265,0,0,0,0,0,0,0,0,0,0,0,0,0,0.0549,0.059,0.0557,0.0501,0.0495,0.048,0.0478,0.0477,0.0385,0.0383,0.0381,0.038,0.027,0.0267,0.0265,0.0288,0,0,0.0257,0.0255,0,0,0,0,0,0,0,0,0.0552,0.0548,0.051,0.0505,0.0498,0.0441,0.0449,0.0412,0.0386,0.0426,0.0381,0.0379,0.0325,0.0318,0.0307,0.0283,0.0278,0.0256,0.0255,0.0254,0.0253,0,0,0,0,0,0,0,0.0555,0.0551,0.0525,0.051,0.0502,0.0467,0.046,0.0441,0.0386,0.0422,0.0416,0.041,0.0321,0.0309,0.0303,0.0276,0.0256,0.0254,0.0253,0.0251,0.0198,0.0198,0,0,0,0,0,0,0.0571,0.0554,0.0528,0.0523,0.0522,0.0469,0.046,0.046,0.0387,0.0374,0.0411,0.0406,0.0315,0.0306,0.0299,0.0257,0.0254,0.0251,0.025,0.0198,0.0198,0.0198,0,0,0,0,0,0,0.0572,0.057,0.0531,0.0537,0.0529,0.0471,0.0472,0.046,0.0432,0.0379,0.0365,0.0393,0.0313,0.0303,0.0272,0.0254,0.025,0.0248,0.0198,0.0198,0.0198,0.0215,0,0,0,0,0,0,0.0573,0.0571,0.0574,0.0538,0.053,0.0526,0.0473,0.046,0.0432,0.0424,0.036,0.0348,0.0311,0.0276,0.0269,0.025,0.0246,0.0197,0.0198,0.0198,0.0214,0.0215,0.0217,0,0,0,0,0,0.0575,0.0591,0.0575,0.0572,0.0538,0.0527,0.0519,0.0469,0.0434,0.0434,0.0382,0.0349,0.0272,0.0275,0.0266,0.0246,0.0197,0.0198,0.0198,0.0213,0.0215,0.0217,0,0,0,0,0,0,0.0604,0.0582,0.0564,0.0571,0.0552,0.0511,0.0502,0.0472,0.0432,0.0411,0.0358,0.0344,0.0309,0.0286,0.029,0.0233,0.0227,0.0226,0.0242,0.0243,0.0245,0.0248,0.0243,0,0,0,0,0,0.0616,0.0619,0.0595,0.0598,0.059,0.0546,0.0533,0.05,0.0463,0.0441,0.0391,0.0342,0.031,0.0283,0.0254,0.023,0.0202,0.0211,0.0213,0.0214,0.0212,0.0163,0.016,0.0199,0.0199,0.0199,0,0,0.0624,0.0615,0.0613,0.0604,0.0579,0.0577,0.0532,0.0512,0.0494,0.0438,0.039,0.0351,0.0308,0.0273,0.0254,0.0245,0.0189,0.0214,0.0216,0.0213,0.0163,0.0159,0.0155,0.02,0.02,0.02,0,0,0.0648,0.0637,0.0647,0.064,0.0615,0.0592,0.0589,0.0544,0.0504,0.0469,0.0418,0.0373,0.0318,0.0279,0.0255,0.0254,0.0205,0.0238,0.0236,0.0189,0.0185,0.0181,0.0144,0.0137,0.0231,0.0231,0.0231,0,0.0656,0.067,0.0648,0.0658,0.0651,0.0603,0.061,0.0575,0.0518,0.0487,0.0454,0.036,0.032,0.0279,0.0263,0.0254,0.0221,0.0231,0.0189,0.0185,0.018,0.0144,0.0135,0.0231,0.0231,0.0231,0.0231,0,0.0689,0.0697,0.0702,0.0699,0.0693,0.069,0.0649,0.0616,0.0558,0.0514,0.0449,0.0388,0.0327,0.0306,0.0275,0.0226,0.0211,0.0202,0.0183,0.0177,0.0139,0.013,0.0233,0.0232,0.0232,0.0232,0,0,0.071,0.0723,0.0722,0.073,0.0712,0.071,0.068,0.0642,0.0617,0.0534,0.0495,0.041,0.0356,0.0327,0.028,0.023,0.0165,0.0195,0.0192,0.0155,0.0057,0.0051,0.004,0.0139,0.0137,0.0136,0.0044,0,0.0737,0.0768,0.0764,0.0783,0.0796,0.0754,0.0737,0.0691,0.0635,0.0585,0.0492,0.044,0.0371,0.0335,0.027,0.0209,0.0141,0.0191,0.0071,0.0068,0.0059,0.0029,-0.0003,-0.0088,0.0035,0.0033,0.0032,0,0.0768,0.0788,0.0811,0.0826,0.0826,0.0819,0.0783,0.0765,0.0689,0.0641,0.0558,0.049,0.04,0.0345,0.02,0.0231,0.0131,0.0075,0.007,0.0051,0.0044,-0.0063,-0.0109,0.0017,0.0018,0.0019,0.002,0,0.079,0.082,0.0837,0.0841,0.0847,0.0828,0.0817,0.0763,0.0755,0.0668,0.0656,0.0528,0.0479,0.0337,0.0206,0.0186,0.0067,0.0028,-0.0075,-0.0076,-0.0132,-0.0135,-0.0099,-0.0099,-0.0098,-0.0098,-0.0098,0,0.0825,0.084,0.0841,0.0851,0.0863,0.0852,0.0848,0.0815,0.0788,0.0803,0.0679,0.0681,0.0471,0.0382,0.0231,0.0069,0.0075,-0.0085,-0.0107,-0.0125,-0.0127,-0.0055,-0.0049,-0.0102,-0.0101,-0.01,-0.01,0,0.0843,0.0846,0.0871,0.0875,0.0872,0.0872,0.0882,0.0896,0.0861,0.0881,0.0857,0.0781,0.0677,0.0492,0.0294,0.0121,-0.0038,-0.0102,-0.0101,-0.0122,-0.0166,-0.0158,-0.0261,-0.0262,-0.0263,-0.0264,-0.0265,0,0.0854,0.0867,0.0881,0.0896,0.089,0.0896,0.0915,0.0909,0.095,0.0967,0.1002,0.0912,0.0894,0.0615,0.0273,-0.001,0.0004,-0.0222,-0.0282,-0.0175,-0.0186,-0.0176,-0.0167,-0.0353,-0.0355,-0.0356,-0.0357,0,0.0879,0.087,0.0893,0.0919,0.0937,0.0989,0.1022,0.1084,0.1111,0.1172,0.1258,0.1251,0.094,0.0632,0.0224,0.0037,-0.0185,-0.0254,-0.0152,-0.0291,-0.0266,-0.0274,-0.0262,-0.0366,-0.0366,-0.0365,-0.0364,-0.0364,0.088,0.0898,0.0917,0.0947,0.0986,0.1082,0.1147,0.1261,0.1387,0.1491,0.148,0.1418,0.0954,0.0395,0.0097,-0.025,-0.0249,-0.0396,-0.0391,-0.0386,-0.0365,-0.034,-0.0451,-0.0451,-0.0451,-0.045,-0.045,0,0.088,0.0903,0.0946,0.0994,0.1063,0.1068,0.1222,0.135,0.156,0.1574,0.1662,0.1212,0.0856,0.0416,-0.016,-0.048,-0.0498,-0.0512,-0.0499,-0.0489,-0.0481,-0.0462,-0.0576,-0.0577,-0.0577,-0.0577,0,0,0.0875,0.0912,0.0945,0.1045,0.1084,0.1196,0.1299,0.1532,0.1599,0.1682,0.1545,0.1377,0.079,0.0342,-0.006,-0.0314,-0.0311,-0.0343,-0.0224,-0.0155,-0.0142,-0.0413,-0.0374,0,0,0,0,0]}],[{"header":{"parameterUnit":"m.s-1","parameterCategory":2,"la1":30.2991,"la2":30.254,"lo1":-89.0895,"lo2":-89.0444,"dy":0.0017,"dx":0.0017,"nx":28,"ny":28,"refTime":"2024-08-12T21:00:00:Z","depth":"4","parameterNumber":2,"parameterNumberName":"U-component_of_CURRENTS"},"data":[0,0,0,0,0,0,0,0,0,0,0,0,0,0,0,0,0,0,0,0,0,0,0,0,0,0,0,0,0,0,0,0,0,0,0,0,0,0,0,0,0,0,0,0,0,0,0,0,0,0,0,0,0,0,0,0,0,0,0.0741,0.0743,0,0.0831,0.0832,0.0832,0.0891,0.0892,0.0893,0.0894,0.0965,0.0966,0.0967,0,0,0,0,0,0,0,0,0,0,0,0,0,0.0632,0.0633,0.0741,0.0743,0.0744,0.0831,0.0832,0.0832,0.0891,0.0892,0.0893,0.0894,0.0965,0.0966,0.0967,0,0,0,0,0,0,0,0,0,0,0,0,0,0.069,0.0633,0.0741,0.0789,0.0795,0.0831,0.0832,0.0833,0.089,0.0892,0.0893,0.0895,0.0965,0.0966,0.0968,0.0947,0,0,0.0972,0.0973,0,0,0,0,0,0,0,0,0.0686,0.0693,0.078,0.0786,0.0792,0.0857,0.082,0.0872,0.089,0.0847,0.0894,0.0896,0.0931,0.0935,0.094,0.095,0.0954,0.0972,0.0973,0.0974,0.0974,0,0,0,0,0,0,0,0.0682,0.069,0.077,0.0782,0.079,0.0811,0.082,0.083,0.0874,0.0851,0.0857,0.0877,0.0933,0.0938,0.0942,0.0955,0.0972,0.0974,0.0974,0.0975,0.1065,0.1067,0,0,0,0,0,0,0.0683,0.0686,0.0767,0.0773,0.075,0.0812,0.0822,0.0829,0.0874,0.0885,0.0876,0.088,0.0935,0.094,0.0944,0.103,0.0974,0.0975,0.0976,0.1064,0.1066,0.1067,0,0,0,0,0,0,0.068,0.0688,0.0764,0.0738,0.075,0.0813,0.0821,0.0831,0.0881,0.0895,0.0904,0.0922,0.0936,0.0942,0.097,0.1029,0.0976,0.0977,0.1062,0.1064,0.1066,0.1131,0,0,0,0,0,0,0.0676,0.0686,0.0708,0.0737,0.0752,0.0806,0.082,0.0832,0.0892,0.0899,0.0937,0.0942,0.0938,0.0967,0.0971,0.103,0.0978,0.106,0.1063,0.1066,0.1127,0.1135,0.1142,0,0,0,0,0,0.0671,0.0681,0.0708,0.072,0.0773,0.0807,0.0816,0.0861,0.0893,0.0912,0.0931,0.0944,0.0989,0.0968,0.0973,0.1034,0.1059,0.1062,0.1065,0.1124,0.1134,0.1142,0,0,0,0,0,0,0.0652,0.0689,0.0719,0.0744,0.0789,0.082,0.0856,0.0885,0.0917,0.0937,0.0944,0.095,0.0999,0.1001,0.0978,0.1068,0.1034,0.1038,0.1077,0.1087,0.1094,0.1095,0.098,0,0,0,0,0,0.0657,0.0659,0.072,0.0735,0.0776,0.0826,0.0856,0.0887,0.0915,0.0935,0.0955,0.0983,0.1009,0.1035,0.1044,0.1087,0.1061,0.1134,0.1142,0.1148,0.1153,0.1131,0.1137,0.1078,0.1078,0.1078,0,0,0.0663,0.0672,0.0685,0.073,0.0777,0.0829,0.0848,0.0904,0.0935,0.0935,0.0983,0.1004,0.1021,0.1065,0.1092,0.1082,0.1155,0.1153,0.1158,0.1159,0.1135,0.1141,0.1146,0.1081,0.108,0.108,0,0,0.0655,0.0687,0.0707,0.0742,0.0812,0.0846,0.0876,0.0936,0.0964,0.1001,0.1019,0.1054,0.1099,0.1114,0.113,0.1183,0.1186,0.1229,0.1283,0.1262,0.1267,0.127,0.1254,0.1256,0.1245,0.1245,0.1245,0,0.0665,0.0693,0.0721,0.0752,0.0793,0.0863,0.0918,0.0947,0.0997,0.1021,0.1026,0.1098,0.111,0.1169,0.1204,0.12,0.1203,0.1247,0.1271,0.1273,0.1276,0.1259,0.1259,0.1248,0.1248,0.1247,0.1247,0,0.0688,0.0721,0.074,0.0799,0.084,0.0892,0.0955,0.1001,0.1049,0.1076,0.1139,0.1143,0.1199,0.122,0.1237,0.1294,0.1297,0.1271,0.1244,0.1285,0.1265,0.1265,0.1253,0.1252,0.1251,0.125,0,0,0.0664,0.0747,0.0749,0.0792,0.0874,0.0906,0.0973,0.1051,0.11,0.1143,0.1186,0.1245,0.1282,0.1303,0.1335,0.1331,0.1353,0.1342,0.1339,0.132,0.1337,0.1297,0.1292,0.1353,0.1353,0.1354,0.132,0,0.0686,0.0745,0.0776,0.0847,0.0911,0.0974,0.1015,0.1079,0.1138,0.1187,0.1218,0.1279,0.1307,0.1363,0.1366,0.1354,0.1356,0.1365,0.1305,0.1303,0.1257,0.1291,0.1354,0.1319,0.1319,0.1319,0.1319,0,0.07,0.0735,0.082,0.0884,0.092,0.098,0.1079,0.1129,0.1209,0.1251,0.133,0.1354,0.1409,0.1396,0.14,0.1424,0.1405,0.137,0.1367,0.1305,0.1262,0.1267,0.1317,0.1317,0.1317,0.1317,0.1318,0,0.0657,0.0751,0.0818,0.0847,0.0946,0.1009,0.1087,0.1177,0.1211,0.1336,0.137,0.1425,0.1466,0.1443,0.142,0.1432,0.1369,0.1354,0.1287,0.1284,0.1299,0.1295,0.1328,0.1329,0.1329,0.1329,0.1329,0,0.0642,0.0685,0.0829,0.0851,0.0942,0.1028,0.1119,0.1204,0.129,0.1325,0.1438,0.1444,0.1487,0.1458,0.1421,0.136,0.1375,0.1301,0.1274,0.1329,0.133,0.1298,0.1295,0.1327,0.1328,0.1328,0.1328,0,0.0586,0.0664,0.0735,0.0868,0.0925,0.1006,0.114,0.1187,0.1313,0.1364,0.141,0.1474,0.1472,0.1459,0.1403,0.1366,0.129,0.1257,0.1327,0.1302,0.1221,0.1222,0.119,0.1188,0.1187,0.1185,0.1184,0,0.0564,0.0607,0.0741,0.0796,0.088,0.1012,0.1078,0.1203,0.1237,0.1343,0.133,0.1391,0.142,0.1303,0.1309,0.1249,0.1232,0.1214,0.1224,0.1231,0.1207,0.121,0.1213,0.1182,0.1182,0.1181,0.1181,0,0.052,0.0577,0.0635,0.0755,0.0851,0.0924,0.104,0.1038,0.1157,0.1255,0.1252,0.127,0.1262,0.124,0.1232,0.1168,0.1237,0.1199,0.1202,0.1212,0.1221,0.12,0.1204,0.1176,0.1177,0.1177,0.1178,0,0.0487,0.0515,0.0597,0.0701,0.0804,0.084,0.0894,0.0945,0.0983,0.1106,0.1078,0.1148,0.1217,0.1193,0.114,0.1133,0.1125,0.1105,0.1113,0.1119,0.1116,0.1119,0.1022,0,0,0,0,0,0.0465,0.0475,0.0543,0.062,0.072,0.0777,0.086,0.09,0.0986,0.0964,0.1032,0.1023,0.1046,0.1054,0.103,0.1097,0.1112,0.1067,0.1089,0.1149,0.1155,0.1161,0,0,0,0,0,0,0.0433,0.0482,0.0501,0.0549,0.0598,0.0672,0.072,0.0773,0.0756,0.0863,0.0856,0.0981,0.0978,0.1043,0.1012,0.1023,0.1024,0.1117,0.1116,0.1146,0.1151,0.1156,0.1164,0,0,0,0,0]},{"header":{"parameterUnit":"m.s-1","parameterCategory":2,"la1":30.2991,"la2":30.254,"lo1":-89.0895,"lo2":-89.0444,"dy":0.0017,"dx":0.0017,"nx":28,"ny":28,"refTime":"2024-08-12T21:00:00:Z","depth":"4","parameterNumber":3,"parameterNumberName":"V-component_of_CURRENTS"},"data":[0,0,0,0,0,0,0,0,0,0,0,0,0,0,0,0,0,0,0,0,0,0,0,0,0,0,0,0,0,0,0,0,0,0,0,0,0,0,0,0,0,0,0,0,0,0,0,0,0,0,0,0,0,0,0,0,0,0,0.0004,0.0004,0,-0.0075,-0.0076,-0.0077,-0.0107,-0.0107,-0.0107,-0.0106,-0.0194,-0.0197,-0.0199,0,0,0,0,0,0,0,0,0,0,0,0,0,0.0076,0.0075,0.0005,0.0004,0.0003,-0.0075,-0.0076,-0.0077,-0.0107,-0.0107,-0.0107,-0.0106,-0.0194,-0.0197,-0.02,0,0,0,0,0,0,0,0,0,0,0,0,0,0.0026,0.0075,0.0005,-0.0022,-0.0025,-0.0075,-0.0076,-0.0077,-0.0107,-0.0107,-0.0107,-0.0106,-0.0193,-0.0196,-0.02,-0.0231,0,0,-0.0212,-0.0214,0,0,0,0,0,0,0,0,0.0029,0.0023,-0.0017,-0.002,-0.0024,-0.0081,-0.0083,-0.0129,-0.0107,-0.0076,-0.0106,-0.0106,-0.0157,-0.0164,-0.018,-0.0235,-0.0239,-0.0212,-0.0215,-0.0216,-0.0217,0,0,0,0,0,0,0,0.0032,0.0026,-0.0027,-0.0018,-0.0022,-0.0048,-0.0054,-0.0092,-0.0118,-0.0079,-0.0081,-0.009,-0.0159,-0.0176,-0.0182,-0.0241,-0.0212,-0.0216,-0.0218,-0.0219,-0.0352,-0.0353,0,0,0,0,0,0,0.0045,0.003,-0.0025,-0.0029,0.0004,-0.0049,-0.0056,-0.0063,-0.0118,-0.0126,-0.009,-0.0091,-0.017,-0.0178,-0.0185,-0.0245,-0.0216,-0.022,-0.0222,-0.0351,-0.0352,-0.0354,0,0,0,0,0,0,0.0047,0.0041,-0.0021,-0.0002,-0.0011,-0.0051,-0.0058,-0.0065,-0.0087,-0.0126,-0.0134,-0.0106,-0.017,-0.018,-0.0227,-0.0248,-0.0222,-0.0225,-0.0349,-0.0351,-0.0353,-0.0352,0,0,0,0,0,0,0.0049,0.0042,0.0036,-0.0001,-0.0012,-0.0052,-0.0058,-0.0066,-0.0093,-0.0095,-0.0143,-0.015,-0.017,-0.0221,-0.0231,-0.0253,-0.0228,-0.0348,-0.035,-0.0352,-0.035,-0.0353,-0.0356,0,0,0,0,0,0.0052,0.0046,0.0037,0.003,-0.0016,-0.0053,-0.0061,-0.0088,-0.0094,-0.0107,-0.014,-0.0149,-0.0242,-0.0225,-0.0236,-0.026,-0.0347,-0.035,-0.0352,-0.0349,-0.0353,-0.0356,0,0,0,0,0,0,0.0072,0.0041,0.003,0.0015,-0.0018,-0.0058,-0.0074,-0.0092,-0.013,-0.0132,-0.0165,-0.0176,-0.0227,-0.0245,-0.0225,-0.0306,-0.0296,-0.0301,-0.029,-0.0293,-0.0296,-0.0278,-0.0231,0,0,0,0,0,0.0074,0.0065,0.0027,0.0014,-0.0002,-0.0039,-0.0059,-0.0077,-0.0113,-0.0129,-0.0163,-0.0203,-0.0248,-0.0269,-0.0309,-0.0352,-0.0361,-0.0375,-0.0378,-0.038,-0.0374,-0.0417,-0.0423,-0.0363,-0.0363,-0.0363,0,0,0.0076,0.0061,0.0053,0.0018,-0.0009,-0.0036,-0.005,-0.008,-0.0102,-0.0134,-0.0176,-0.0217,-0.0263,-0.0312,-0.0336,-0.0328,-0.04,-0.0383,-0.0385,-0.0377,-0.0421,-0.0426,-0.0431,-0.0364,-0.0364,-0.0364,0,0,0.0077,0.0063,0.0051,0.0026,-0.0011,-0.0035,-0.0043,-0.0089,-0.0108,-0.0153,-0.0187,-0.0236,-0.0298,-0.0337,-0.0364,-0.0407,-0.0416,-0.0425,-0.0422,-0.0464,-0.0469,-0.0473,-0.0477,-0.0482,-0.0422,-0.0422,-0.0422,0,0.008,0.0063,0.004,0.002,0.0,-0.0033,-0.0056,-0.0084,-0.0138,-0.0157,-0.0163,-0.027,-0.0308,-0.0375,-0.039,-0.0412,-0.0425,-0.0403,-0.0466,-0.0471,-0.0475,-0.0479,-0.0484,-0.0422,-0.0422,-0.0422,-0.0422,0,0.0067,0.0051,0.0042,0.001,-0.0016,-0.0038,-0.0077,-0.0104,-0.0129,-0.016,-0.0226,-0.0283,-0.034,-0.037,-0.0394,-0.0455,-0.0449,-0.0466,-0.0452,-0.0481,-0.0483,-0.0488,-0.0423,-0.0423,-0.0422,-0.0422,0,0,0.0079,0.0041,0.0038,0.0025,-0.002,-0.0039,-0.0075,-0.0118,-0.0137,-0.0194,-0.0231,-0.0316,-0.0342,-0.0375,-0.0419,-0.046,-0.0502,-0.0474,-0.0476,-0.0466,-0.0572,-0.0542,-0.0545,-0.0535,-0.0536,-0.0537,-0.0554,0,0.0074,0.0054,0.0028,0.0001,-0.0015,-0.0053,-0.008,-0.0121,-0.0155,-0.0198,-0.0263,-0.0312,-0.0345,-0.0373,-0.0424,-0.0492,-0.0519,-0.0494,-0.0554,-0.0555,-0.0517,-0.0552,-0.0541,-0.0558,-0.0559,-0.056,-0.0561,0,0.0066,0.0058,0.0042,0.0008,-0.0004,-0.0019,-0.0058,-0.009,-0.0153,-0.0179,-0.0239,-0.029,-0.0368,-0.0384,-0.0495,-0.0479,-0.0518,-0.056,-0.0563,-0.0538,-0.0537,-0.0529,-0.0571,-0.057,-0.0569,-0.0569,-0.0568,0,0.0096,0.0063,0.0061,0.0049,0.0007,-0.0001,-0.0024,-0.0075,-0.0092,-0.0158,-0.0173,-0.0279,-0.0319,-0.0406,-0.0493,-0.0498,-0.06,-0.0616,-0.0619,-0.0615,-0.0634,-0.0629,-0.0676,-0.0676,-0.0676,-0.0676,-0.0676,0,0.0103,0.0095,0.0086,0.0083,0.0085,0.0041,0.0035,-0.0002,-0.0047,-0.006,-0.0149,-0.0185,-0.0328,-0.0407,-0.0487,-0.0566,-0.0592,-0.0617,-0.0627,-0.0631,-0.0626,-0.0636,-0.0632,-0.0677,-0.0677,-0.0677,-0.0676,0,0.0126,0.0116,0.0114,0.0098,0.0102,0.0106,0.0093,0.0085,0.0044,0.0025,0.0008,-0.0116,-0.0224,-0.0348,-0.0488,-0.0538,-0.0628,-0.064,-0.061,-0.0617,-0.061,-0.0605,-0.0648,-0.0648,-0.0647,-0.0647,-0.0646,0,0.0131,0.014,0.0148,0.0166,0.0166,0.0177,0.0184,0.0142,0.0137,0.0071,0.006,-0.0051,-0.0136,-0.0302,-0.0449,-0.059,-0.0606,-0.0629,-0.0648,-0.0607,-0.0612,-0.0608,-0.0604,-0.0645,-0.0645,-0.0645,-0.0645,0,0.0144,0.0155,0.016,0.0212,0.0236,0.0247,0.0257,0.0262,0.0215,0.019,0.012,0.0011,-0.0112,-0.0284,-0.0389,-0.0496,-0.0614,-0.0624,-0.0626,-0.0644,-0.0604,-0.0609,-0.0605,-0.0643,-0.0643,-0.0643,-0.0643,0,0.016,0.0171,0.0198,0.0243,0.0283,0.0301,0.0296,0.0288,0.0272,0.0211,0.0187,0.0039,-0.0059,-0.0234,-0.0341,-0.0441,-0.0468,-0.0482,-0.0492,-0.0496,-0.0458,-0.0386,-0.0367,0,0,0,0,0,0.0179,0.0191,0.0226,0.026,0.0308,0.0329,0.0335,0.0321,0.0299,0.0275,0.0235,0.0124,-0.0059,-0.0171,-0.0262,-0.0346,-0.0497,-0.0455,-0.052,-0.0632,-0.0634,-0.0616,0,0,0,0,0,0,0.018,0.0212,0.0221,0.0283,0.0319,0.0351,0.0358,0.0335,0.031,0.0281,0.0173,0.0133,-0.0065,0.0008,-0.0251,-0.0289,-0.0335,-0.0548,-0.0549,-0.063,-0.0633,-0.0634,-0.0616,0,0,0,0,0]}]]